Location: Newark
(42.8481°N, 0.4872°E)
Time: 13:29:21
(UTC+00:00)

Vanguard 1 Rocket - All Passes

Search period start: 31 October 2020 00:00
Search period end: 10 November 2020 00:00
Orbit: 656 x 4221 km, 34.3° (Epoch: 30 October)

Date Brightness Start Highest point End Pass type
(mag) Time Alt. Az. Time Alt. Az. Time Alt. Az.
31 Oct - 08:39:07 10° SSW 08:43:31 19° SSE 08:46:58 10° ESE daylight
31 Oct - 11:03:44 10° WSW 11:07:52 29° S 11:11:47 10° ESE daylight
31 Oct - 13:28:34 10° WSW 13:32:04 21° SSW 13:36:23 10° SE daylight
01 Nov - 07:28:24 10° SSW 07:32:34 15° SSE 07:35:49 10° SE daylight
01 Nov - 09:52:35 10° SW 09:57:19 28° S 10:01:08 10° ESE daylight
01 Nov - 12:17:45 10° WSW 12:21:28 26° S 12:25:30 10° SE daylight
01 Nov - 14:44:00 10° SW 14:45:57 12° SSW 14:48:11 10° S daylight
02 Nov - 06:18:51 10° S 06:21:18 11° SSE 06:23:26 10° SE daylight
02 Nov - 08:41:10 10° SW 08:46:37 25° S 08:50:36 10° ESE daylight
02 Nov - 11:06:43 10° WSW 11:10:57 29° S 11:14:51 10° ESE daylight
02 Nov - 13:32:15 10° WSW 13:35:08 16° SSW 13:38:27 10° SSE daylight
03 Nov - 07:29:36 10° SSW 07:35:41 21° SSE 07:39:58 10° ESE daylight
03 Nov - 09:55:18 10° WSW 10:00:24 31° S 10:04:22 10° ESE daylight
03 Nov - 12:21:04 10° WSW 12:24:31 22° SSW 12:28:10 10° SE daylight
04 Nov - 06:18:18 10° SSW 06:24:25 17° SSE 06:28:52 10° ESE daylight
04 Nov - 08:43:29 10° SW 08:49:43 30° S 08:54:01 10° ESE daylight
04 Nov - 11:09:46 10° WSW 11:14:00 28° S 11:17:49 10° SE daylight
04 Nov - 13:36:43 10° SW 13:38:09 11° SSW 13:39:40 10° S daylight
05 Nov - 05:08:05 10° S 05:12:49 13° SSE 05:16:37 10° SE visible
05 Nov - 07:31:21 10° SW 07:38:47 27° SSE 07:43:38 10° ESE daylight
05 Nov - 09:58:07 10° WSW 10:03:29 33° S 10:07:32 10° ESE daylight
05 Nov - 12:24:33 10° WSW 12:27:31 17° SSW 12:30:33 10° SSE daylight
06 Nov - 06:19:12 10° SSW 06:27:32 24° SSE 06:32:59 10° ESE daylight
06 Nov - 08:45:59 10° WSW 08:52:48 35° S 08:57:20 10° ESE daylight
06 Nov - 11:12:55 10° WSW 11:17:02 25° SSW 11:20:40 10° SE daylight
07 Nov - 05:07:27 10° SSW 05:15:55 19° SSE 05:21:45 10° ESE visible
07 Nov - 07:33:25 10° SW 07:41:53 34° S 07:47:05 10° ESE daylight
07 Nov - 10:01:01 10° WSW 10:06:32 33° S 10:10:38 10° SE daylight
07 Nov - 12:28:29 10° SW 12:30:28 13° SSW 12:32:26 10° S daylight
08 Nov - 03:57:01 10° S 04:03:54 14° SSE 04:09:12 10° SE visible
08 Nov - 06:20:37 10° SW 06:30:38 30° SSE 06:36:40 10° ESE daylight
08 Nov - 08:48:36 10° WSW 08:55:53 38° S 09:00:33 10° ESE daylight
08 Nov - 11:16:09 10° WSW 11:20:00 21° SSW 11:23:22 10° SSE daylight
09 Nov - 05:07:58 10° SSW 05:18:59 26° SSE 05:25:52 10° ESE visible
09 Nov - 07:35:40 10° WSW 07:44:58 39° S 07:50:25 10° ESE daylight
09 Nov - 10:03:57 10° WSW 10:09:32 31° SSW 10:13:39 10° SE daylight
